[[{"header":{"parameterUnit":"m.s-1","parameterCategory":1,"la1":30.2991,"la2":30.254,"lo1":-89.0895,"lo2":-89.0444,"dy":0.0017,"dx":0.0017,"nx":28,"ny":28,"refTime":"2025-03-14T03:00:00:Z","depth":0,"parameterNumber":2,"parameterNumberName":"U-component_of_WINDS"},"data":[0,0,0,0,0,0,0,0,0,0,0,0,0,0,0,0,0,0,0,0,0,0,0,0,0,0,0,0,0,0,0,0,0,0,0,0,0,0,0,0,0,0,0,0,0,0,0,0,0,0,0,0,0,0,0,0,0,0,-0.8141,-0.8143,0,-0.8312,-0.8314,-0.8316,-0.8408,-0.8409,-0.8409,-0.8409,-0.8588,-0.8592,-0.8597,0,0,0,0,0,0,0,0,0,0,0,0,0,-0.7898,-0.7902,-0.8141,-0.8143,-0.8145,-0.8312,-0.8314,-0.8316,-0.8408,-0.8409,-0.8409,-0.8409,-0.8586,-0.8592,-0.8597,0,0,0,0,0,0,0,0,0,0,0,0,0,-0.8029,-0.7903,-0.814,-0.8211,-0.8219,-0.8311,-0.8314,-0.8317,-0.8408,-0.8409,-0.8409,-0.8409,-0.8584,-0.8591,-0.8598,-0.8634,0,0,-0.8619,-0.8622,0,0,0,0,0,0,0,0,-0.8022,-0.8038,-0.8198,-0.8206,-0.8215,-0.8339,-0.8294,-0.8423,-0.8408,-0.8336,-0.8409,-0.8409,-0.8505,-0.8518,-0.855,-0.8643,-0.865,-0.8619,-0.8624,-0.8627,-0.8629,0,0,0,0,0,0,0,-0.8013,-0.8031,-0.8209,-0.82,-0.8211,-0.8235,-0.8254,-0.8319,-0.8417,-0.8343,-0.835,-0.8369,-0.851,-0.8543,-0.8555,-0.8653,-0.8619,-0.8625,-0.863,-0.8632,-0.8786,-0.8786,0,0,0,0,0,0,-0.7992,-0.8023,-0.8203,-0.8214,-0.8117,-0.8239,-0.8261,-0.8299,-0.8417,-0.8435,-0.8368,-0.8372,-0.8531,-0.8547,-0.8561,-0.8613,-0.8627,-0.8633,-0.8637,-0.8786,-0.8786,-0.8786,0,0,0,0,0,0,-0.7986,-0.8007,-0.8196,-0.812,-0.8146,-0.8243,-0.8286,-0.8302,-0.8336,-0.8436,-0.8454,-0.8384,-0.8532,-0.8552,-0.8616,-0.8621,-0.8636,-0.8642,-0.8786,-0.8786,-0.8786,-0.8715,0,0,0,0,0,0,-0.7979,-0.8004,-0.8018,-0.812,-0.815,-0.8246,-0.8286,-0.8305,-0.8347,-0.8354,-0.8456,-0.8473,-0.8534,-0.8605,-0.8622,-0.863,-0.8648,-0.8786,-0.8786,-0.8786,-0.8718,-0.8713,-0.8709,0,0,0,0,0,-0.797,-0.7991,-0.8018,-0.8039,-0.8169,-0.8246,-0.8263,-0.8332,-0.8347,-0.8362,-0.8427,-0.8469,-0.8617,-0.8611,-0.8631,-0.8641,-0.8786,-0.8786,-0.8786,-0.872,-0.8714,-0.8709,0,0,0,0,0,0,-0.7888,-0.8006,-0.8037,-0.8092,-0.8158,-0.8261,-0.8283,-0.8324,-0.8388,-0.8392,-0.8476,-0.8498,-0.8554,-0.8604,-0.8595,-0.8684,-0.8706,-0.871,-0.8649,-0.8644,-0.8639,-0.8627,-0.8653,0,0,0,0,0,-0.7876,-0.7927,-0.8028,-0.8067,-0.8099,-0.8185,-0.8221,-0.8268,-0.8341,-0.837,-0.8439,-0.8508,-0.8571,-0.861,-0.8673,-0.8725,-0.875,-0.8743,-0.8738,-0.8734,-0.8736,-0.877,-0.8768,-0.8786,-0.8786,-0.8786,0,0,-0.7853,-0.7924,-0.7951,-0.8053,-0.811,-0.8163,-0.8208,-0.8261,-0.8302,-0.8378,-0.8443,-0.8496,-0.858,-0.8638,-0.8667,-0.8681,-0.8737,-0.8734,-0.873,-0.8735,-0.8769,-0.8768,-0.8766,-0.8786,-0.8786,-0.8786,0,0,-0.7837,-0.7895,-0.7935,-0.7991,-0.8076,-0.8133,-0.8142,-0.824,-0.8278,-0.8344,-0.8403,-0.8453,-0.8558,-0.8616,-0.8658,-0.8666,-0.8708,-0.8684,-0.8661,-0.8692,-0.8691,-0.869,-0.8694,-0.8694,-0.8686,-0.8686,-0.8686,0,-0.7798,-0.7878,-0.795,-0.8001,-0.8045,-0.8115,-0.8157,-0.8208,-0.831,-0.8339,-0.8353,-0.8488,-0.8549,-0.8623,-0.8624,-0.8656,-0.8671,-0.8673,-0.8685,-0.8685,-0.8685,-0.869,-0.8691,-0.8683,-0.8683,-0.8684,-0.8684,0,-0.7826,-0.7881,-0.7903,-0.7998,-0.8045,-0.8091,-0.8171,-0.821,-0.8253,-0.8309,-0.8377,-0.8453,-0.8533,-0.8554,-0.8597,-0.8634,-0.8641,-0.8668,-0.8693,-0.8679,-0.8685,-0.8687,-0.8678,-0.8679,-0.868,-0.8681,0,0,-0.7763,-0.7898,-0.7905,-0.795,-0.805,-0.8095,-0.8145,-0.8222,-0.8254,-0.8322,-0.8367,-0.8455,-0.8482,-0.8531,-0.8582,-0.8609,-0.8612,-0.8634,-0.8638,-0.8628,-0.8659,-0.8637,-0.8638,-0.864,-0.8641,-0.8641,-0.8652,0,-0.7763,-0.7854,-0.7921,-0.7987,-0.804,-0.8108,-0.8152,-0.8219,-0.8273,-0.8327,-0.8388,-0.8449,-0.8479,-0.8509,-0.8539,-0.8605,-0.8619,-0.8605,-0.8684,-0.8686,-0.8661,-0.8641,-0.8619,-0.8625,-0.8655,-0.8655,-0.8656,0,-0.7774,-0.7839,-0.791,-0.8005,-0.803,-0.8067,-0.8145,-0.8195,-0.8273,-0.8311,-0.8365,-0.8417,-0.8475,-0.8494,-0.8576,-0.8564,-0.8601,-0.8638,-0.864,-0.8651,-0.867,-0.8652,-0.8629,-0.863,-0.866,-0.8659,-0.8659,0,-0.7722,-0.7827,-0.7884,-0.792,-0.8032,-0.8058,-0.8106,-0.8184,-0.8227,-0.8295,-0.8324,-0.8398,-0.8438,-0.8495,-0.8567,-0.8574,-0.8641,-0.8666,-0.8676,-0.8674,-0.8687,-0.8685,-0.867,-0.8709,-0.8709,-0.8709,-0.8709,0,-0.7714,-0.7755,-0.7862,-0.7897,-0.7946,-0.8023,-0.807,-0.8124,-0.8193,-0.8241,-0.8306,-0.8349,-0.8441,-0.8497,-0.8553,-0.8613,-0.8631,-0.8664,-0.8679,-0.8659,-0.8654,-0.8684,-0.8686,-0.8709,-0.8709,-0.8709,-0.8709,0,-0.7665,-0.7738,-0.7804,-0.7905,-0.7932,-0.7963,-0.805,-0.8088,-0.8146,-0.8206,-0.8224,-0.8315,-0.8384,-0.8461,-0.8556,-0.8594,-0.8651,-0.8671,-0.8624,-0.8632,-0.8638,-0.8637,-0.8642,-0.8647,-0.8681,-0.868,-0.868,0,-0.7655,-0.7689,-0.7793,-0.7829,-0.7875,-0.7933,-0.7977,-0.8055,-0.8098,-0.819,-0.8217,-0.829,-0.8353,-0.846,-0.8536,-0.861,-0.8633,-0.863,-0.8645,-0.8624,-0.8635,-0.8632,-0.8636,-0.8626,-0.8625,-0.8624,-0.8624,0,-0.7631,-0.7666,-0.7726,-0.7799,-0.7849,-0.7911,-0.7975,-0.8001,-0.8093,-0.8139,-0.8209,-0.8258,-0.8355,-0.8428,-0.851,-0.8562,-0.8609,-0.8619,-0.8625,-0.8605,-0.8577,-0.8593,-0.8613,-0.8618,-0.8619,-0.8619,-0.862,-0.862,-0.7603,-0.7636,-0.7715,-0.778,-0.7836,-0.7895,-0.7935,-0.7998,-0.8058,-0.8142,-0.8185,-0.8255,-0.8335,-0.8451,-0.8501,-0.8559,-0.8574,-0.8582,-0.8585,-0.8586,-0.8581,-0.8566,-0.8574,-0.8574,-0.8575,-0.8575,-0.8575,0,-0.7583,-0.7637,-0.7696,-0.7784,-0.7835,-0.7873,-0.7947,-0.7988,-0.8049,-0.8118,-0.8179,-0.8261,-0.8333,-0.8414,-0.8491,-0.8521,-0.8545,-0.8539,-0.8538,-0.855,-0.8563,-0.855,-0.8519,-0.8519,-0.8519,-0.8519,-0.8519,-0.8519,-0.7579,-0.7637,-0.7681,-0.7769,-0.7824,-0.7892,-0.7931,-0.7987,-0.8042,-0.8131,-0.819,-0.8242,-0.8317,-0.84,-0.8468,-0.8491,-0.8516,-0.8504,-0.8533,-0.8544,-0.8548,-0.8553,-0.8541,-0.8509,-0.8509,-0.8516,-0.8516,-0.8516]},{"header":{"parameterUnit":"m.s-1","parameterCategory":1,"la1":30.2991,"la2":30.254,"lo1":-89.0895,"lo2":-89.0444,"dy":0.0017,"dx":0.0017,"nx":28,"ny":28,"refTime":"2025-03-14T03:00:00:Z","depth":0,"parameterNumber":3,"parameterNumberName":"V-component_of_WINDS"},"data":[0,0,0,0,0,0,0,0,0,0,0,0,0,0,0,0,0,0,0,0,0,0,0,0,0,0,0,0,0,0,0,0,0,0,0,0,0,0,0,0,0,0,0,0,0,0,0,0,0,0,0,0,0,0,0,0,0,0,8.9503,8.9506,0,8.9804,8.9808,8.9811,8.9867,8.9865,8.9863,8.986,9.0167,9.0177,9.0187,0,0,0,0,0,0,0,0,0,0,0,0,0,8.8977,8.8987,8.9502,8.9506,8.951,8.9804,8.9808,8.9812,8.9868,8.9865,8.9862,8.9859,9.0163,9.0176,9.0188,0,0,0,0,0,0,0,0,0,0,0,0,0,8.9234,8.899,8.9502,8.9573,8.9583,8.9803,8.9808,8.9813,8.9868,8.9865,8.9861,8.9858,9.0159,9.0174,9.019,9.0359,0,0,9.0238,9.0244,0,0,0,0,0,0,0,0,8.922,8.9254,8.9559,8.9569,8.958,8.9795,8.9735,8.9996,8.9869,8.976,8.986,8.9856,9.0046,9.007,9.0135,9.0373,9.0386,9.0239,9.0248,9.0255,9.026,0,0,0,0,0,0,0,8.9202,8.9241,8.9622,8.9564,8.9576,8.9591,8.9624,8.9785,8.9919,8.9769,8.9774,8.9809,9.0051,9.012,9.0142,9.0391,9.0239,9.0252,9.0262,9.0268,9.0788,9.0793,0,0,0,0,0,0,8.9171,8.9226,8.9612,8.9631,8.9387,8.9603,8.964,8.9729,8.9918,8.9943,8.9812,8.9811,9.0095,9.0124,9.0153,9.0368,9.0255,9.027,9.0279,9.0784,9.0789,9.0794,0,0,0,0,0,0,8.916,8.9205,8.96,8.943,8.9481,8.9616,8.9716,8.9737,8.9806,8.995,8.9974,8.9858,9.0093,9.0131,9.0309,9.0379,9.0277,9.0291,9.0779,9.0786,9.0792,9.0795,0,0,0,0,0,0,8.9145,8.9201,8.9266,8.9431,8.949,8.975,8.9721,8.9746,8.9833,8.9834,9.0,9.0023,9.0093,9.0285,9.0324,9.0399,9.0303,9.0773,9.0782,9.079,9.0789,9.0801,9.0811,0,0,0,0,0,8.9126,8.9253,8.9269,8.9315,8.9574,8.9754,8.9788,8.9866,8.9838,8.9906,8.9999,9.0018,9.0364,9.0303,9.0347,9.0428,9.0769,9.0779,9.0789,9.0785,9.0799,9.0811,0,0,0,0,0,0,8.9092,8.9276,8.9295,8.948,8.9601,8.9763,8.985,8.9878,9.0009,9.0004,9.0095,9.0132,9.0306,9.0384,9.0312,9.0604,9.0565,9.0584,9.0546,9.0561,9.0572,9.055,9.0316,0,0,0,0,0,8.9106,8.9236,8.939,8.9538,8.9598,8.9714,8.9795,8.9845,8.9974,9.0025,9.0131,9.0255,9.0392,9.048,9.0614,9.08,9.0839,9.0878,9.0888,9.0897,9.0913,9.1022,9.1042,9.0827,9.0827,9.0827,0,0,8.9136,8.9253,8.9329,8.9535,8.9634,8.9769,8.9756,8.9898,8.9999,9.0046,9.0222,9.0304,9.0448,9.0632,9.0718,9.0702,9.0981,9.0909,9.0915,9.0927,9.1034,9.1054,9.1072,9.0834,9.0833,9.0832,0,0,8.9261,8.9361,8.9498,8.9599,8.975,8.9827,8.986,9.0019,9.0076,9.0253,9.0293,9.0414,9.0648,9.0751,9.0833,9.1001,9.1025,9.1041,9.1099,9.1204,9.1221,9.1236,9.13,9.1321,9.1057,9.1057,9.1057,0,8.9279,8.9483,8.9564,8.9706,8.9797,8.9847,8.9988,9.0081,9.0269,9.0331,9.0311,9.0608,9.0708,9.0919,9.096,9.1024,9.1067,9.1024,9.1212,9.1228,9.1244,9.1305,9.1329,9.1058,9.1058,9.1058,9.1058,0,8.9501,8.9641,8.9734,8.9916,9.0017,9.0156,9.026,9.0352,9.0395,9.0473,9.0656,9.0778,9.094,9.0993,9.1034,9.1211,9.1197,9.1193,9.1157,9.1264,9.1324,9.1348,9.106,9.106,9.1059,9.1059,0,0,8.9612,8.9839,8.9872,8.9957,9.013,9.0241,9.0384,9.0544,9.0623,9.0751,9.0875,9.1073,9.1072,9.1166,9.1219,9.1311,9.1441,9.1297,9.1302,9.1322,9.1648,9.1652,9.1678,9.1457,9.1462,9.1465,9.1637,0,8.976,9.0018,9.0097,9.0314,9.0448,9.0499,9.0625,9.0745,9.0823,9.0948,9.1033,9.1174,9.116,9.1218,9.1311,9.1405,9.1508,9.1394,9.1576,9.1581,9.1541,9.1708,9.1713,9.1868,9.166,9.1664,9.1667,0,8.9967,9.0101,9.0332,9.0492,9.0551,9.0662,9.0817,9.0935,9.1073,9.1124,9.1231,9.1277,9.1431,9.1384,9.1599,9.1519,9.1598,9.1656,9.1664,9.1686,9.1632,9.1738,9.1919,9.1944,9.1704,9.1701,9.1698,0,9.003,9.0268,9.0438,9.0509,9.0698,9.0776,9.0858,9.0993,9.1085,9.122,9.1282,9.1432,9.1515,9.1631,9.1718,9.1675,9.1926,9.1885,9.1974,9.1972,9.2026,9.2022,9.2226,9.2072,9.2071,9.2071,9.207,0,9.0188,9.0328,9.0469,9.0574,9.0734,9.0824,9.0979,9.1064,9.1184,9.1308,9.136,9.1474,9.1581,9.171,9.1779,9.1948,9.1984,9.203,9.2048,9.2028,9.2022,9.2083,9.2075,9.2077,9.2076,9.2074,9.2073,0,9.0286,9.0385,9.0575,9.074,9.0785,9.0896,9.1037,9.1142,9.1223,9.1379,9.142,9.1547,9.1703,9.18,9.1996,9.2043,9.223,9.2241,9.2184,9.2193,9.2277,9.2269,9.253,9.257,9.2385,9.2386,9.2388,0,9.0382,9.0492,9.0669,9.0757,9.0841,9.0979,9.1075,9.1168,9.1265,9.1433,9.1519,9.1677,9.181,9.2056,9.2166,9.2317,9.2335,9.2416,9.2358,9.2336,9.2341,9.2335,9.2348,9.2426,9.2428,9.2429,9.243,0,9.0544,9.0589,9.0724,9.0879,9.0992,9.1118,9.1243,9.1312,9.1427,9.1534,9.1694,9.1797,9.2,9.2158,9.232,9.2406,9.2439,9.2447,9.2477,9.2459,9.2423,9.2447,9.2214,9.2441,9.244,9.2439,9.2439,9.2438,9.0647,9.0748,9.089,9.1041,9.1146,9.1263,9.1371,9.1467,9.1602,9.1776,9.1822,9.1991,9.213,9.2351,9.244,9.2574,9.2563,9.2604,9.2616,9.2625,9.2629,9.2399,9.2603,9.2603,9.2603,9.2603,9.2603,0,9.0814,9.0909,9.1047,9.1222,9.1342,9.1363,9.1504,9.1602,9.1751,9.1878,9.2008,9.2194,9.2349,9.2472,9.2632,9.2716,9.2735,9.2755,9.2751,9.2771,9.2627,9.2588,9.2737,9.2737,9.2737,9.2737,9.2736,9.2736,9.0916,9.109,9.1152,9.138,9.1474,9.1641,9.172,9.183,9.1932,9.2138,9.2268,9.2348,9.2474,9.2644,9.2788,9.282,9.2878,9.2895,9.2931,9.2795,9.278,9.2766,9.273,9.2906,9.2906,9.3064,9.3065,9.3066]}]]